Вернуться в каталог

STARLINK-5685

АктивенСвязьVLEO
NORAD 55477·PAYLOAD·🇺🇸 United States

Запущен Feb 2, 2023 с Cape Canaveral Space Force Station

Loading…

Ближайшие Пролёты (ближайшие 24 часа)

TLE

СвежийSource: CelesTrak SupGP

Эпоха: Sep 14, 2026, 21:46 UTC

1 55477C 23015AE  26257.90743056 -.00032984  00000+0 -11946-2 0  2572
2 55477  43.0011 332.6178 0001448 269.3002 172.0436 15.27595788    19

Отслеживайте STARLINK-5685 в реальном времени с AllMySat

Download on the App Store